Location: Proctor
(47.8934°N, 114.3048°W)
Time: 11:38:50
(UTC+00:00)

Transit 4A - Pass Details

Date: 30 June 2024
Orbit: 870 x 973 km, 66.8° (Epoch: 13 July)

Event Time Altitude Azimuth Distance (km) Brightness Sun altitude
Rises 09:43:40 0° 321° (NW) 3,478 11.2 -13.8°
Reaches altitude 10° 09:47:24 10° 345° (NNW) 2,550 10.9 -13.5°
Maximum altitude 09:50:38 15° 19° (NNE) 2,231 11.1 -13.3°
Drops below altitude 10° 09:53:55 10° 52° (NE) 2,579 11.4 -13.0°
Sets 09:57:43 0° 76° (ENE) 3,540 11.7 -12.6°
